Wind_Speed
59 59 59 58 58 57 57 56 56 56 56 55 54 53 52 51 50 49 48 48 47 48 48 46 45 44 43 43 43 43 45 45 44 42 42 42 42 41 41 42 43 45 46 46 45 44 43 43 41 41 41 39 36 33 33 35 35 35 35 32 29 30 33 35 35 34 33 34 34 32 31 27 23 22 21 18 17 17 14 11 12 13 11 10 10
58 58 58 57 57 56 56 55 56 56 56 55 55 55 55 55 54 54 53 53 52 50 49 48 46 46 46 46 45 44 43 43 42 42 41 41 42 41 41 41 43 44 45 46 46 45 40 37 35 36 37 36 35 33 32 33 35 36 37 33 31 31 32 33 35 34 34 35 34 33 33 30 25 24 22 20 19 19 17 15 15 14 12 11 12
54 55 55 55 55 54 54 54 55 55 55 55 55 55 56 56 57 57 57 57 56 54 52 50 48 48 49 48 47 44 43 42 42 42 41 41 42 41 41 41 42 44 46 47 44 38 31 28 29 30 32 32 31 31 30 30 32 36 40 41 37 34 35 35 35 36 36 36 36 35 35 31 26 25 24 21 20 20 19 17 17 16 14 13 14
50 52 53 53 54 53 53 54 55 55 55 56 56 56 56 56 56 57 57 57 56 55 53 51 49 49 50 49 47 44 43 43 43 42 41 42 42 42 40 40 42 43 43 41 37 31 27 28 29 28 28 29 29 30 29 27 28 33 39 45 45 40 39 39 40 39 38 38 38 37 35 31 27 26 25 23 22 22 19 17 17 17 16 15 16
48 51 52 53 53 53 54 54 55 56 57 57 56 56 56 56 56 56 56 56 55 54 52 51 50 50 51 50 47 45 43 42 42 42 41 42 43 42 40 40 40 38 36 36 35 34 34 35 36 36 33 31 31 32 32 30 27 29 35 42 49 49 43 40 41 41 41 40 39 37 36 32 29 26 24 25 25 22 19 17 17 17 16 16 17
50 51 52 53 53 53 53 54 55 56 56 56 56 56 55 55 56 56 56 56 55 54 53 51 50 49 49 49 47 46 43 42 43 42 43 43 43 42 40 39 37 36 37 39 39 40 41 40 40 40 37 35 35 35 35 34 29 27 31 37 46 50 44 39 40 41 41 41 39 37 36 33 30 26 26 27 26 23 22 21 20 19 18 18 18
51 51 52 52 52 52 52 53 54 55 55 55 55 55 55 55 55 55 55 55 55 54 53 52 50 48 48 47 46 45 44 44 44 43 43 43 43 42 41 39 38 41 42 40 41 44 44 44 44 42 40 39 37 35 35 36 33 29 28 33 42 47 44 38 39 40 40 40 39 37 36 33 31 29 28 28 26 25 25 25 24 22 21 20 19
48 48 47 47 48 49 50 51 52 53 54 54 54 54 54 54 54 54 54 54 54 54 52 51 49 48 48 47 46 45 45 45 45 44 43 43 43 42 42 40 39 41 42 41 44 45 45 45 45 45 45 43 38 36 35 36 35 31 27 28 38 43 42 39 38 38 38 39 39 38 36 34 32 31 30 29 28 28 27 26 27 26 23 22 22
42 42 40 41 43 45 47 48 49 50 50 51 52 52 52 52 52 52 52 52 52 51 50 49 48 47 48 48 47 46 45 45 45 45 44 43 43 43 43 42 40 40 43 46 47 48 48 48 47 47 49 48 44 40 38 36 36 35 30 27 34 38 39 40 38 36 36 37 38 37 36 35 33 32 30 30 31 30 28 27 28 29 26 25 25
40 40 38 39 40 41 42 43 44 44 45 47 48 48 48 48 47 47 47 47 47 46 45 45 45 45 46 47 48 48 46 45 45 45 45 44 44 44 44 44 43 44 46 48 50 50 50 50 51 50 49 49 50 48 44 40 40 41 35 29 34 37 38 40 38 34 34 36 37 36 36 36 35 34 33 34 34 33 32 29 29 30 29 28 28
40 39 38 37 37 38 39 39 40 41 42 44 44 44 44 44 43 42 42 42 42 42 41 41 41 41 42 44 46 48 48 47 45 44 45 45 44 44 44 45 45 46 48 49 51 53 52 51 53 54 51 47 49 50 48 45 43 41 35 30 34 37 39 42 39 34 34 36 37 36 37 37 36 36 37 38 37 36 36 33 31 31 30 30 30
38 37 36 35 36 36 37 37 39 40 41 42 41 40 41 40 40 41 41 42 42 41 40 40 40 40 41 42 44 47 49 49 47 45 45 44 44 45 46 46 46 47 48 49 52 54 54 53 54 56 54 47 46 46 45 45 43 38 33 30 34 37 39 43 41 37 36 38 39 37 38 39 38 38 40 40 39 38 37 35 32 30 30 30 31
36 36 35 35 35 35 36 37 38 40 41 42 41 40 39 39 39 41 42 43 42 41 40 41 41 42 43 43 44 46 49 51 50 48 47 46 46 46 46 47 46 47 49 50 52 54 54 54 56 58 55 47 43 41 40 43 42 37 33 31 34 36 39 42 42 39 37 38 40 39 39 40 39 39 39 40 38 36 35 33 31 30 31 32 33
36 36 35 35 35 35 36 37 38 40 40 41 41 40 39 39 40 41 42 43 42 41 41 41 42 43 43 43 43 45 47 50 51 50 49 48 48 47 47 47 47 48 49 49 52 54 53 54 57 59 56 48 41 38 37 41 42 40 36 34 35 36 37 40 42 41 38 37 39 39 39 39 39 38 37 37 36 35 33 31 31 32 34 35 35
36 35 35 36 36 36 37 37 38 39 39 40 39 39 39 39 40 41 42 43 42 42 42 42 42 42 42 42 42 43 44 46 47 48 48 48 48 47 46 46 47 48 48 50 52 52 52 54 57 59 56 48 39 35 36 39 42 42 39 36 37 37 37 38 41 42 40 37 36 36 37 39 39 38 37 36 36 35 33 33 35 36 37 37 36
36 36 36 37 37 38 39 39 39 39 39 39 39 39 39 40 41 42 43 43 43 43 43 44 43 43 43 43 42 42 43 43 44 44 45 46 46 46 46 46 47 48 48 50 52 52 52 55 57 58 54 45 37 33 35 38 41 42 40 37 38 39 39 39 40 42 42 38 36 34 36 40 41 39 37 37 36 36 36 37 39 39 39 38 38
37 37 38 38 39 39 40 41 41 40 40 40 40 40 40 41 42 43 44 44 45 44 44 45 46 46 45 43 42 41 42 42 42 42 43 44 45 45 45 45 46 48 48 49 51 52 52 55 57 57 51 42 36 32 35 38 39 40 39 38 37 37 39 39 39 41 42 40 38 36 34 38 41 40 38 37 37 39 40 40 41 41 40 40 39
38 39 39 39 39 39 39 40 40 40 40 40 40 40 41 41 42 43 44 44 44 44 45 45 46 47 46 45 43 42 41 41 41 42 43 44 44 44 44 45 46 47 47 48 50 51 52 54 57 56 48 41 36 31 34 38 39 39 38 38 37 36 37 38 38 39 40 39 38 36 34 35 38 40 40 38 38 40 41 41 41 40 39 38 37
39 39 39 39 39 38 38 38 38 38 38 39 39 39 40 40 40 41 42 42 44 45 46 45 45 46 46 45 44 42 41 40 41 42 43 44 44 44 44 45 46 47 47 48 49 50 51 53 55 54 46 39 35 30 33 38 39 38 37 38 38 37 38 37 37 36 36 36 36 36 36 36 36 37 40 39 39 40 41 40 39 36 36 37 37
40 39 39 38 38 37 37 36 37 38 38 38 38 38 38 39 40 41 42 44 45 46 45 44 43 43 44 44 43 42 41 40 41 42 43 44 44 44 44 45 46 46 46 47 48 49 50 51 54 52 44 38 33 28 33 37 39 39 39 40 41 40 40 39 38 37 36 36 36 36 37 38 38 38 39 39 40 41 39 38 37 36 37 39 40
42 41 40 39 38 37 36 36 37 38 38 37 37 37 38 40 42 43 44 45 45 44 43 42 41 41 42 42 42 42 42 41 41 42 42 43 44 44 45 45 46 46 46 46 47 48 49 49 51 49 42 37 29 26 33 36 39 40 40 41 41 41 40 40 40 39 38 38 37 37 38 40 41 40 38 37 39 40 39 39 38 39 41 42 42
44 43 42 40 38 37 36 36 36 36 36 36 37 38 40 41 43 44 45 45 44 43 42 42 41 41 41 41 41 41 41 41 42 42 43 43 44 44 45 45 46 45 45 46 46 47 48 48 49 45 39 36 26 26 33 34 38 40 41 43 42 40 39 39 40 40 40 41 41 40 40 42 44 43 40 38 38 38 39 40 41 42 43 43 43
44 44 42 41 40 38 36 35 35 36 37 38 38 39 40 41 43 43 44 44 44 44 44 44 44 43 42 41 40 41 41 41 42 43 43 44 44 44 44 45 45 45 44 45 45 46 46 46 47 42 35 32 23 26 33 34 36 39 41 43 43 42 40 39 40 39 38 39 41 43 44 44 44 44 43 41 40 40 41 42 43 43 43 43 43
44 43 41 40 40 39 37 36 37 38 39 39 37 38 39 40 40 41 41 42 43 44 44 45 45 45 44 42 41 41 41 41 42 43 43 43 43 43 44 45 45 44 44 44 44 45 45 44 44 39 32 26 20 26 33 34 36 38 39 39 38 40 40 40 40 38 35 34 36 41 45 46 46 45 45 45 45 45 45 44 43 42 41 41 43
44 42 41 42 41 41 40 40 40 41 40 37 36 37 38 39 39 40 41 42 43 43 43 43 44 45 44 43 42 41 41 41 41 42 43 42 42 43 43 44 44 43 42 42 43 43 43 42 41 37 30 21 20 25 29 32 34 35 36 36 36 38 39 39 38 37 37 36 36 38 42 46 47 47 47 48 49 48 47 45 44 43 42 42 44
46 45 45 45 45 43 42 42 43 42 39 37 37 38 39 40 41 42 43 44 45 45 45 44 44 44 44 43 41 41 41 40 41 42 42 42 42 42 43 43 43 42 41 41 41 42 41 40 39 35 28 21 23 27 28 30 32 33 34 35 38 39 38 38 37 38 40 41 41 41 42 43 45 46 46 47 48 48 48 46 44 43 43 44 46
49 49 48 48 46 44 43 43 42 41 39 39 40 40 40 42 43 44 45 46 46 46 46 45 45 44 43 41 40 39 39 40 40 41 41 41 41 42 42 42 42 41 40 40 40 40 40 39 37 34 28 22 25 30 31 30 32 34 35 37 40 40 38 38 39 39 40 40 40 41 42 42 43 45 46 46 46 47 48 48 46 45 45 46 47
49 49 49 49 48 46 44 43 42 42 42 43 43 42 42 43 45 46 47 47 46 46 46 46 45 44 42 40 38 38 38 39 40 41 41 41 41 42 42 42 41 40 40 39 39 39 39 37 36 33 28 24 27 32 34 33 32 34 34 36 42 43 40 41 41 41 43 41 40 41 43 43 43 44 45 46 47 48 49 49 49 50 50 50 51
48 48 49 50 49 48 46 44 43 45 46 46 45 44 44 44 46 47 48 48 47 47 47 46 45 44 42 40 39 39 40 40 40 41 41 41 42 42 41 41 40 39 39 39 39 38 38 36 34 32 29 27 28 32 36 36 35 35 35 36 42 44 44 44 43 44 46 45 42 42 43 44 45 45 45 47 48 48 49 50 52 53 53 53 54
49 49 50 50 49 48 47 46 46 47 47 47 46 45 45 46 47 48 48 48 49 49 48 47 46 45 44 43 42 42 42 42 41 41 41 41 42 42 41 40 39 39 38 38 38 38 37 36 34 32 30 29 29 32 36 38 37 38 39 40 42 44 46 47 46 46 48 48 47 45 43 43 45 47 49 50 51 51 51 51 52 53 54 55 55
54 53 52 50 48 48 48 48 48 47 47 47 47 47 47 47 47 48 49 50 51 51 49 49 49 49 49 48 46 45 44 43 43 42 42 42 41 41 41 40 39 38 38 38 38 37 37 37 34 31 30 30 31 33 36 38 39 40 43 44 45 45 48 49 49 48 49 50 50 50 48 47 47 49 50 50 51 53 53 53 53 52 53 54 54
56 57 55 53 52 52 52 51 50 48 48 48 48 48 49 49 48 49 50 51 52 51 51 51 52 52 51 51 49 47 44 43 44 43 42 42 41 41 40 39 38 38 38 38 38 37 37 36 35 32 30 30 32 35 37 39 41 43 45 47 48 48 50 51 51 51 51 51 50 51 51 50 48 47 47 47 48 50 52 53 52 51 51 52 52
57 58 58 57 57 56 54 52 50 49 49 49 49 50 50 50 49 50 51 52 53 53 54 54 54 53 53 52 50 47 44 43 44 44 43 42 41 40 40 39 38 37 38 38 38 37 37 36 36 34 31 30 31 35 38 40 43 44 46 49 51 51 51 51 51 51 53 53 52 51 50 49 47 46 46 46 47 48 50 51 51 51 51 52 52
59 59 58 58 57 55 53 52 51 50 50 49 50 51 51 51 51 51 52 54 55 55 55 55 54 53 52 50 48 46 43 43 43 43 43 42 40 40 39 38 38 37 37 38 38 37 37 36 36 35 32 30 31 35 40 42 44 46 47 48 51 53 53 52 51 51 52 54 55 53 50 48 47 47 47 47 47 48 49 50 51 51 52 53 54
60 60 59 58 56 54 53 52 51 50 49 49 50 51 52 52 52 52 53 53 54 55 54 53 51 50 49 47 46 45 44 42 41 41 42 41 40 39 39 39 38 37 37 37 38 38 37 37 37 36 34 31 31 34 40 44 46 47 48 49 50 52 54 54 53 52 52 53 55 55 53 51 49 48 47 47 46 46 47 49 50 51 52 53 55
60 60 59 57 55 53 52 52 51 50 50 50 51 52 52 52 52 52 52 52 53 53 52 50 48 47 47 47 47 46 44 43 42 42 41 40 39 39 39 39 39 38 38 37 37 38 38 38 38 37 35 33 32 33 38 44 48 48 50 52 52 53 54 55 55 54 54 54 55 55 54 54 53 52 50 47 45 44 45 47 48 49 52 53 54
59 58 57 55 54 54 54 53 53 52 51 50 51 52 52 52 52 52 52 53 53 52 50 48 47 47 47 47 47 46 46 46 46 45 43 41 40 39 39 39 39 39 39 38 38 39 39 39 38 38 37 34 33 34 36 42 48 50 50 52 54 54 55 56 56 56 56 56 56 56 55 54 54 54 53 52 50 48 48 50 50 51 53 54 55
59 58 56 55 55 55 55 55 54 52 51 51 52 53 53 53 52 52 53 54 55 54 52 51 50 49 48 47 47 47 47 47 46 45 44 42 41 40 40 40 40 40 40 40 40 40 40 40 39 39 38 36 34 35 36 40 45 50 51 51 52 54 55 57 58 58 58 57 57 57 57 56 55 54 54 55 55 54 54 55 56 56 57 58 59
59 57 56 55 56 56 55 54 53 52 52 52 53 54 54 53 53 53 54 55 55 54 54 53 52 50 48 46 46 46 45 44 44 43 44 43 42 41 41 41 41 41 41 41 41 41 41 41 40 40 39 38 36 36 37 39 42 48 52 52 52 52 54 56 57 58 59 59 58 58 59 59 58 58 58 57 57 57 57 57 58 58 59 59 59
57 56 55 55 55 55 54 54 53 53 53 54 54 54 54 54 54 55 55 54 53 52 52 51 50 49 47 46 45 45 46 45 44 43 43 43 43 42 42 42 42 42 42 42 42 42 42 42 41 41 40 39 38 37 38 39 41 45 51 54 54 53 53 55 57 58 58 59 59 60 62 62 62 63 62 61 60 59 59 59 59 59 59 60 60
56 56 55 55 55 55 55 54 53 53 53 54 55 55 55 56 56 57 57 55 53 52 51 49 48 48 48 48 48 47 48 48 47 45 44 44 44 43 43 43 42 42 42 43 43 43 43 42 42 42 41 41 40 39 39 40 41 43 48 53 56 55 55 55 57 58 59 60 60 61 63 64 65 65 64 64 63 62 61 61 61 62 62 63 63
58 57 56 56 55 55 55 54 54 54 54 55 56 56 57 57 57 56 55 53 52 51 50 49 49 49 50 51 51 50 50 50 50 48 46 45 44 44 43 43 43 43 43 43 44 44 44 43 43 43 43 42 41 40 40 41 41 43 46 50 55 57 57 57 58 59 60 61 62 63 64 65 66 66 65 65 65 64 64 63 63 63 64 65 65
58 57 56 55 55 55 55 55 55 55 55 56 57 57 57 56 54 53 51 51 51 50 49 50 51 52 53 53 53 54 53 53 51 49 46 45 45 44 44 44 44 44 44 44 44 44 45 45 44 44 44 44 43 42 41 42 42 43 46 49 53 57 59 60 60 61 61 61 62 63 65 67 67 67 66 66 66 67 66 66 65 65 65 66 67
56 56 55 55 54 54 54 55 55 56 56 57 56 55 53 52 51 50 50 50 50 50 51 52 53 54 55 55 55 55 54 52 49 47 45 45 45 45 45 45 45 45 45 45 45 45 46 46 46 46 46 45 44 44 43 43 44 45 46 49 52 57 60 61 61 62 63 63 63 63 65 67 69 70 69 68 68 68 68 69 69 69 70 70 71
55 55 55 55 54 54 55 55 56 56 56 55 53 51 50 49 49 49 49 50 51 52 53 54 55 55 55 56 56 55 52 49 46 44 44 45 45 45 45 45 46 46 46 46 46 46 47 47 48 48 47 47 46 46 45 46 46 47 47 49 52 56 60 62 63 63 64 65 65 65 65 66 68 70 71 71 71 71 71 71 71 72 73 74 75
54 54 54 54 54 55 55 55 54 54 53 52 51 50 50 50 50 50 50 51 51 53 54 55 55 56 56 56 54 52 49 46 45 44 44 45 45 45 46 46 47 47 47 47 48 48 48 48 49 49 49 48 48 48 48 48 48 49 49 51 53 56 60 64 65 65 65 66 67 67 68 68 69 70 71 72 73 74 74 74 74 74 75 76 77
53 53 53 53 54 54 53 52 52 52 52 52 53 53 52 51 51 50 50 51 51 53 55 56 56 56 56 54 51 49 47 46 45 45 45 45 46 46 46 47 48 48 48 49 49 49 50 50 50 50 49 49 50 51 51 51 51 51 51 52 54 57 60 64 67 68 68 68 68 69 69 70 71 71 72 72 73 75 76 76 77 77 78 78 79
52 52 52 52 52 52 51 51 51 52 53 53 54 53 52 50 50 49 50 51 53 54 55 56 57 56 54 51 49 48 47 46 46 46 46 46 47 47 47 48 49 49 50 50 51 51 52 51 51 51 51 51 52 52 53 53 53 53 53 54 55 57 60 64 68 70 70 71 71 71 72 73 73 73 74 74 75 76 77 78 78 79 80 80 81
49 49 50 49 50 50 51 51 51 51 51 51 51 51 50 49 49 50 51 53 55 55 56 56 55 53 51 49 48 48 47 47 47 47 47 48 48 48 49 50 50 51 51 52 52 53 53 53 53 53 54 54 54 55 55 55 55 54 55 55 56 58 60 63 67 70 73 73 73 73 74 75 76 77 77 77 78 78 79 80 81 81 82 83 84
48 48 49 49 50 51 50 50 49 48 47 48 48 49 50 51 51 52 54 55 56 56 55 53 51 50 49 48 48 48 48 48 48 49 49 49 50 50 50 51 52 52 53 53 54 54 54 55 55 56 57 57 58 58 57 57 56 56 56 56 57 59 61 63 65 69 72 75 77 77 76 77 78 79 80 81 82 82 83 83 84 85 86 87 87
48 48 49 48 48 48 48 47 47 47 47 48 49 51 53 54 55 55 55 55 54 53 51 50 49 49 49 49 49 49 49 50 50 50 51 51 51 52 52 53 53 54 54 55 55 56 57 58 58 59 60 60 59 59 57 56 56 56 57 57 58 59 61 63 65 67 70 74 78 80 81 81 80 81 82 84 85 86 87 87 88 89 90 91 92
Wind_Direction
255 255 255 256 257 258 259 260 261 261 262 262 263 263 262 261 262 264 264 264 266 269 270 273 274 275 279 283 286 286 283 281 281 282 285 288 293 297 301 306 309 313 316 317 316 315 315 315 315 313 309 303 295 283 271 260 248 239 238 240 242 243 247 249 247 247 243 241 240 240 241 242 245 246 246 250 250 247 249 253 267 278 288 301 307
254 255 255 256 257 258 259 259 260 261 262 263 263 262 262 261 262 263 264 265 267 268 269 270 271 272 275 279 283 286 285 282 280 281 283 286 292 296 299 304 309 312 315 316 315 314 316 319 320 321 317 312 306 297 285 271 258 244 234 234 235 234 240 245 245 245 241 239 239 238 238 238 239 243 247 254 254 248 247 249 259 268 279 295 302
256 256 256 257 257 258 259 259 261 262 263 264 264 264 263 263 263 264 264 265 266 267 267 268 269 269 271 276 281 284 284 282 279 279 281 285 291 294 298 303 308 312 315 315 314 315 320 322 323 323 321 319 316 310 300 285 270 253 238 233 233 231 234 238 240 241 239 238 237 236 237 236 237 242 247 253 256 253 249 247 256 266 274 286 295
258 257 257 257 257 258 258 260 261 262 263 264 265 265 265 265 265 265 265 265 266 266 266 267 267 267 269 274 279 282 284 281 277 277 280 284 289 292 296 301 308 313 314 312 312 314 315 311 307 307 307 308 310 308 304 294 278 263 247 236 234 234 233 233 235 237 238 237 235 235 236 234 233 238 245 253 257 256 250 247 257 268 275 286 293
257 257 257 257 258 258 259 260 261 262 263 264 264 265 266 266 266 266 266 266 266 266 267 266 266 266 267 271 275 279 281 280 276 276 280 284 287 290 294 300 308 311 305 301 302 302 300 297 295 295 294 291 292 295 296 296 286 270 256 242 236 237 235 233 234 236 237 237 235 233 234 234 234 235 242 250 254 256 253 250 258 268 278 289 295
255 255 256 256 257 258 258 259 260 261 262 263 264 265 266 266 267 267 267 267 267 266 266 266 266 266 266 269 272 276 279 279 275 277 280 283 286 289 293 300 304 300 295 296 296 296 295 294 294 292 290 286 283 284 285 289 291 279 263 247 236 235 234 233 234 235 235 235 234 232 232 235 234 233 239 246 252 256 254 251 256 267 279 288 293
252 252 253 254 256 257 258 259 260 261 262 263 264 264 265 265 266 267 268 268 268 268 267 267 266 265 264 267 271 274 277 278 277 278 280 282 285 288 292 296 298 297 297 296 293 292 292 292 294 292 289 285 279 276 277 280 285 286 273 251 236 232 230 230 233 234 232 232 232 231 233 236 233 231 235 243 251 255 253 251 256 264 276 285 290
251 251 252 254 255 256 257 257 258 259 260 262 263 264 264 265 266 267 267 268 269 269 269 268 267 265 263 265 270 273 277 278 277 278 280 280 283 287 290 293 296 297 297 296 293 291 289 287 288 287 285 283 275 269 270 272 274 281 281 256 237 233 230 227 230 231 230 230 232 232 234 236 234 232 234 239 245 249 249 251 256 261 270 280 285
251 251 251 252 252 253 254 255 256 257 259 261 262 262 263 264 265 266 267 268 270 270 270 270 269 267 264 263 267 271 276 278 277 277 278 279 282 285 288 291 293 292 292 295 295 294 292 289 287 283 280 277 271 264 263 265 267 272 280 260 235 230 228 224 225 228 229 230 234 236 236 237 235 234 236 238 242 245 246 251 256 259 265 274 281
247 247 247 247 248 250 252 254 255 257 258 259 260 261 262 263 265 266 268 269 271 272 272 271 270 270 266 264 265 268 273 277 277 276 276 277 281 284 287 290 292 292 293 296 297 297 296 294 291 287 282 277 271 265 259 260 262 267 274 260 233 225 221 220 221 224 227 231 237 239 237 236 234 232 234 237 239 243 246 251 258 259 260 268 276
245 246 247 248 249 250 252 254 255 256 257 258 260 262 263 264 266 268 269 271 272 273 273 274 273 272 270 267 266 267 270 273 276 276 276 277 280 283 286 289 291 293 295 297 299 300 300 298 296 294 291 285 276 268 261 258 261 264 268 256 232 222 219 218 219 219 224 231 236 239 235 232 231 229 231 235 237 241 246 252 260 259 258 265 273
246 248 249 250 250 252 253 254 255 256 257 259 263 264 265 266 267 268 269 271 273 274 275 277 276 276 275 272 269 268 268 271 273 275 276 278 281 283 286 288 291 293 295 298 299 301 302 301 301 300 299 296 285 274 262 255 257 261 262 248 230 222 218 219 219 217 222 229 234 236 233 230 230 229 231 236 239 242 246 253 260 259 260 267 273
244 245 245 247 249 251 253 254 255 256 258 261 264 266 266 266 267 267 269 272 274 276 278 279 279 279 278 276 273 269 268 269 271 274 276 278 280 283 285 287 289 292 295 298 300 301 303 303 305 305 304 302 291 278 263 251 249 253 252 240 228 221 217 219 220 218 222 229 234 236 235 233 232 232 235 240 242 244 249 255 261 262 264 269 273
243 243 244 246 248 250 253 254 256 257 260 262 263 264 265 265 266 268 270 273 276 279 281 282 282 282 281 279 276 273 270 270 271 273 275 277 279 281 283 285 288 291 295 298 300 302 303 305 308 308 308 305 295 279 262 248 241 243 243 233 224 219 216 219 221 220 223 230 234 237 238 237 235 235 239 244 247 250 255 260 262 263 265 268 270
244 245 247 248 248 250 251 252 254 257 260 262 262 263 264 266 268 269 272 275 278 280 282 284 284 284 283 282 279 276 274 272 272 273 274 276 277 279 281 284 288 291 295 298 300 302 304 307 310 310 310 308 297 276 258 246 237 237 240 233 221 216 216 219 222 222 224 228 233 237 239 236 233 234 237 242 247 252 254 256 257 259 262 265 267
244 245 246 247 248 249 250 250 252 255 258 260 262 264 265 267 270 273 276 278 280 282 284 285 285 285 285 284 282 279 276 275 274 274 274 274 276 278 281 284 288 291 295 298 301 304 306 309 311 312 311 308 297 273 252 242 235 235 240 234 222 217 217 220 222 223 225 227 230 234 238 236 233 233 235 238 243 245 246 247 250 255 260 264 267
241 242 244 246 247 249 249 251 253 255 259 262 264 267 269 272 274 277 279 280 282 284 285 285 285 285 285 284 283 281 278 276 274 274 274 274 276 278 281 284 288 292 295 299 302 305 308 311 312 313 312 308 296 270 245 236 231 232 236 231 222 219 219 221 222 223 225 227 227 231 237 239 237 235 235 237 240 241 242 246 251 257 262 267 272
242 243 244 246 247 249 250 252 255 258 261 264 266 268 270 273 275 277 279 280 282 282 282 283 284 284 284 284 283 282 279 276 274 273 274 274 276 278 280 284 287 291 295 299 302 305 309 312 314 314 313 307 297 269 239 230 228 229 228 225 222 219 218 221 224 224 224 225 227 230 235 239 240 239 237 237 240 242 246 250 254 259 264 269 273
245 245 245 245 247 249 252 255 258 260 263 265 267 269 271 273 274 277 279 280 280 279 279 280 281 281 282 283 282 280 278 276 274 274 274 274 275 277 280 283 287 291 295 299 302 305 309 313 315 316 313 307 297 267 234 227 227 225 222 222 223 220 217 219 222 223 223 224 227 230 232 235 239 241 240 239 241 246 250 254 258 262 264 266 266
245 244 243 244 246 249 252 255 258 260 263 266 268 270 272 273 275 278 280 280 280 279 278 278 278 279 280 281 281 279 278 276 275 275 274 275 276 277 280 283 286 290 294 299 302 305 310 314 317 317 312 307 297 260 230 226 226 221 219 221 224 222 217 216 220 222 220 221 226 229 231 234 237 241 243 243 245 249 252 255 258 259 260 261 263
241 240 240 242 244 246 250 253 256 259 261 264 268 271 274 276 278 280 281 281 281 279 278 277 277 278 278 279 280 280 278 275 274 275 275 275 276 278 281 283 286 290 294 299 302 306 310 314 318 317 311 309 295 248 227 227 224 219 218 221 225 226 222 217 220 224 222 222 226 228 231 234 237 239 242 244 246 247 248 250 253 256 259 261 263
238 239 239 240 241 244 248 251 254 256 259 263 268 273 276 277 279 280 281 281 280 278 278 279 279 278 278 278 279 279 278 276 275 274 275 276 277 279 281 283 286 290 294 299 301 305 310 314 318 316 309 309 293 237 224 226 223 219 219 221 225 227 224 219 220 224 225 226 227 229 232 236 238 239 239 239 241 243 245 248 253 257 260 263 265
239 240 241 242 242 244 247 250 253 256 260 266 271 274 276 277 278 280 280 280 278 278 279 280 280 280 279 278 278 279 279 277 275 274 274 276 277 278 280 282 285 289 293 298 301 304 309 313 317 315 308 306 286 234 224 226 224 223 224 226 228 228 224 220 221 225 228 230 231 232 235 238 240 240 239 238 240 243 247 251 256 259 262 266 269
241 241 242 244 245 246 248 252 256 260 264 267 269 272 276 278 278 279 280 280 279 280 281 281 280 280 280 280 279 280 279 277 276 274 274 275 276 278 280 281 284 288 292 296 299 303 307 312 316 314 306 298 270 233 228 230 230 229 230 230 228 227 223 220 222 227 230 232 234 236 238 240 242 243 243 244 245 248 250 251 255 258 263 268 270
243 243 244 247 248 249 251 256 260 263 263 263 267 273 277 276 276 278 279 280 281 282 284 285 284 281 279 279 280 280 279 277 276 275 274 276 276 278 279 281 284 287 291 294 298 302 305 310 314 312 303 284 248 232 234 236 233 230 229 226 223 223 222 219 222 230 233 234 236 241 244 246 248 249 249 249 250 250 250 251 252 256 261 265 266
243 245 248 250 251 253 255 258 260 260 259 262 269 275 276 274 275 277 278 280 282 284 286 287 286 283 281 279 279 279 278 277 276 275 275 275 276 277 278 280 283 286 289 292 296 300 303 308 312 310 299 271 235 228 234 237 233 227 224 223 222 223 222 219 222 230 234 237 239 242 245 247 249 251 251 252 252 250 250 251 253 256 261 264 265
244 246 249 251 252 254 256 257 257 257 259 266 272 274 273 274 275 276 278 280 282 284 285 285 285 284 282 280 278 277 277 277 277 276 276 276 276 277 278 280 282 285 288 291 293 297 300 304 309 308 295 267 237 229 233 237 234 229 225 221 218 220 220 220 223 227 230 233 235 237 237 238 241 246 248 251 251 250 251 252 253 255 258 261 264
246 247 249 251 253 254 254 254 256 258 262 268 271 271 271 274 275 275 277 280 281 282 283 283 283 283 283 281 279 278 278 278 279 278 278 277 276 277 278 279 282 284 286 289 291 294 297 301 305 305 293 267 242 232 233 237 235 231 228 222 218 218 218 220 225 229 229 230 232 233 233 233 235 240 244 248 249 250 251 253 255 256 258 260 263
248 249 251 252 253 253 252 254 257 260 263 267 269 270 271 273 274 274 276 277 278 281 282 282 282 283 284 283 283 282 280 280 280 280 279 278 277 277 278 279 281 283 284 286 288 291 294 297 301 301 291 269 247 235 234 235 232 229 228 224 221 219 218 223 230 233 231 231 233 235 236 236 238 241 246 250 252 252 253 255 257 258 260 263 265
246 248 249 250 252 252 252 255 259 261 263 266 268 269 270 271 271 273 274 274 276 280 282 282 283 285 285 285 285 285 283 282 282 281 280 279 278 278 278 279 280 281 282 284 286 288 291 294 296 298 291 271 251 238 234 233 231 230 229 228 226 222 221 226 232 233 232 233 234 237 240 243 245 248 251 254 256 256 256 257 258 259 261 263 265
244 245 247 249 250 251 252 256 261 263 265 267 268 268 269 270 270 271 273 274 277 280 282 281 283 284 284 284 284 285 284 283 282 281 279 279 279 278 278 278 278 280 280 281 283 286 288 291 293 294 290 274 255 242 235 231 231 233 233 232 231 227 226 229 232 232 233 234 236 239 243 246 249 253 255 256 258 259 259 259 260 261 262 263 265
243 244 245 248 249 251 254 258 262 265 266 267 268 267 268 269 269 271 272 274 277 279 280 281 282 282 282 282 283 283 282 281 281 280 279 278 278 278 277 277 276 277 278 279 281 283 285 288 290 291 289 277 260 246 237 231 230 233 235 235 234 230 229 231 234 233 234 237 239 242 245 247 250 253 255 256 258 260 260 260 260 261 262 264 265
245 246 247 248 250 253 256 260 263 265 266 266 266 266 267 268 269 270 272 274 276 277 279 280 280 280 280 281 281 280 280 281 280 279 278 278 277 277 277 276 275 275 275 277 279 281 283 285 288 290 288 279 264 250 240 234 230 231 233 233 233 232 230 232 235 236 237 238 240 242 244 246 248 250 252 254 256 258 260 261 260 260 261 262 262
247 249 249 250 252 255 258 260 263 264 264 264 264 265 266 267 268 270 272 274 276 277 279 279 278 278 278 279 279 280 281 282 281 279 278 277 277 276 275 274 274 273 274 276 278 279 281 283 286 288 287 282 268 253 243 237 234 232 231 231 231 231 231 232 235 239 240 241 242 242 242 243 246 249 252 254 256 258 260 261 261 261 261 261 261
246 249 251 253 255 257 260 261 262 262 262 262 263 264 266 267 269 270 272 273 276 278 278 278 277 277 278 278 279 280 281 282 282 280 278 276 275 275 274 273 273 272 273 275 277 279 280 283 285 286 286 283 273 259 246 240 237 234 232 232 232 231 232 233 235 239 241 242 243 243 242 243 245 249 252 254 256 257 258 259 260 261 261 261 261
245 249 252 255 257 259 260 261 261 261 261 262 263 264 265 267 268 269 271 273 276 278 279 278 278 278 279 279 280 281 281 280 281 282 279 275 274 273 273 272 272 272 273 274 276 278 280 282 284 285 285 282 276 265 251 242 239 238 235 234 234 234 234 236 238 240 241 242 242 243 244 245 245 247 249 250 251 253 255 257 259 259 260 260 259
246 249 253 255 257 258 259 259 260 261 261 262 262 263 264 265 266 268 270 274 278 279 278 278 279 279 280 280 280 281 282 281 281 281 278 274 272 272 272 272 273 273 274 275 276 278 279 281 282 283 284 282 276 269 259 247 242 240 239 237 236 237 238 239 241 242 242 242 242 242 243 245 246 247 248 248 248 249 251 253 256 257 258 258 259
248 250 253 254 256 257 258 260 260 261 261 261 261 261 262 263 266 269 273 276 277 277 276 277 278 278 278 279 281 282 283 283 281 279 276 274 272 271 271 272 272 274 275 276 277 278 279 280 281 281 282 281 276 269 264 255 246 242 241 241 240 240 241 242 243 244 243 243 243 243 243 244 245 246 248 249 249 250 251 253 255 257 259 260 261
251 253 254 255 256 257 258 259 260 260 260 260 260 260 261 264 268 271 275 276 275 273 274 275 276 276 277 279 281 283 283 285 284 279 275 273 272 271 271 271 272 274 275 276 277 278 278 278 279 280 280 280 276 270 265 261 253 245 242 242 243 243 243 244 245 245 245 245 244 243 242 243 244 246 248 250 252 253 254 255 257 258 260 260 261
253 253 254 254 255 256 257 257 258 258 259 259 259 260 263 266 269 272 274 275 273 272 273 274 275 276 277 279 281 282 282 283 285 282 277 273 271 271 271 271 272 273 274 275 276 276 277 277 278 279 279 278 276 272 267 263 258 251 245 242 243 244 244 245 246 246 246 245 245 243 243 244 246 247 249 251 253 255 256 256 257 259 259 259 260
250 251 252 253 254 255 255 256 256 257 258 259 260 262 264 267 270 272 273 273 272 272 273 274 275 276 278 279 281 282 281 281 283 282 278 274 272 271 271 271 272 273 274 274 275 276 276 277 277 278 279 278 276 273 269 264 260 256 251 245 243 243 244 245 245 246 247 247 246 245 245 246 247 248 250 252 254 256 257 258 259 260 260 261 261
249 250 251 252 253 254 255 255 256 257 258 259 261 264 267 269 271 271 271 271 271 272 273 274 276 278 280 281 283 283 283 282 281 279 277 274 272 271 271 271 272 273 273 274 275 275 276 276 277 278 278 278 276 274 271 268 263 259 255 250 245 244 244 245 245 246 247 248 248 247 247 247 249 249 250 252 254 255 256 258 259 260 261 261 262
248 250 251 252 252 253 255 255 256 257 258 261 263 266 268 270 270 269 269 269 270 271 273 275 277 279 280 282 283 284 283 283 281 278 274 272 271 271 271 271 272 273 273 274 274 275 276 277 278 278 278 278 277 275 273 270 267 262 258 254 249 245 245 245 246 246 247 249 250 249 249 249 249 250 251 252 253 255 255 256 257 259 260 260 261
247 248 250 251 252 254 255 256 257 259 261 263 265 267 268 268 268 267 268 269 270 272 273 275 277 278 280 282 283 284 284 283 280 276 272 271 271 271 271 272 273 273 274 274 275 276 277 278 278 279 279 279 278 277 275 273 270 266 261 257 252 248 246 246 247 247 247 248 249 250 250 250 250 250 251 252 253 254 255 256 256 257 258 259 260
246 248 250 251 253 254 256 257 259 261 263 264 265 265 265 266 267 268 268 270 271 272 274 275 277 279 281 283 283 284 283 281 278 275 272 271 270 271 272 272 273 273 274 275 275 276 277 278 279 280 280 280 279 277 276 274 272 269 264 259 254 250 247 246 247 248 248 249 249 250 250 251 251 251 251 252 253 254 255 256 257 257 258 259 260
247 249 251 252 253 254 256 257 259 260 262 262 263 263 265 266 268 269 270 271 273 274 275 277 278 280 282 283 283 282 280 278 275 273 272 271 271 272 273 273 274 274 275 275 276 276 277 278 279 279 280 280 279 278 277 275 273 270 266 261 256 252 249 247 247 248 248 249 250 251 251 251 252 252 253 253 253 254 255 257 258 258 259 260 260
247 249 251 252 253 254 255 256 257 259 261 263 265 266 267 268 269 270 271 273 274 275 276 278 280 281 282 282 280 279 277 276 275 274 273 273 273 274 274 274 275 275 276 276 277 277 278 278 278 278 278 278 278 278 278 277 275 271 267 262 257 253 250 248 247 248 249 249 249 250 251 252 252 253 253 254 254 255 256 257 258 259 260 260 261
249 250 252 253 254 255 255 257 259 262 265 267 268 269 270 270 271 272 273 274 274 275 277 279 280 281 281 280 278 277 276 275 275 275 275 275 275 275 275 276 276 276 277 277 278 278 278 278 278 278 278 277 277 277 277 277 275 272 268 264 259 255 252 249 247 247 248 249 250 250 250 251 252 253 254 254 255 255 256 257 258 259 259 260 261
252 253 255 256 258 259 261 263 264 266 267 268 270 271 271 272 272 272 273 274 275 276 278 279 279 280 279 278 277 276 275 275 275 275 275 275 275 275 276 276 276 277 277 277 278 278 279 279 279 279 279 279 279 278 278 277 275 271 268 264 260 257 254 251 249 247 247 247 249 250 250 251 252 253 254 254 255 255 256 257 257 258 259 259 260
255 256 257 259 261 263 264 265 265 266 267 268 269 270 271 271 272 272 273 275 276 277 277 277 277 277 276 276 275 275 275 275 274 274 274 275 275 276 276 277 277 277 278 278 279 279 279 280 280 279 279 279 279 279 278 277 274 271 267 263 260 258 255 254 252 250 249 248 248 249 250 251 252 252 253 254 255 255 256 256 257 258 258 259 259
257 258 260 260 261 263 264 264 265 266 266 267 267 269 270 272 273 274 275 276 276 276 276 275 275 274 274 274 274 274 275 275 275 275 275 276 276 277 277 277 278 278 279 279 280 280 280 280 280 280 280 280 279 278 277 275 272 270 267 264 261 259 257 255 254 253 252 251 249 249 249 250 251 252 253 253 254 255 256 256 257 258 258 259 259
Height
10728 10729 10730 10731 10732 10732 10733 10733 10733 10732 10733 10734 10736 10737 10739 10740 10741 10742 10742 10743 10743 10744 10744 10744 10744 10744 10744 10744 10744 10744 10743 10743 10744 10744 10743 10742 10741 10740 10739 10737 10735 10732 10729 10727 10725 10724 10723 10721 10719 10717 10716 10715 10715 10715 10716 10718 10721 10724 10727 10728 10728 10728 10725 10722 10722 10723 10726 10726 10726 10727 10728 10728 10728 10726 10726 10727 10729 10730 10730 10730 10731 10731 10730 10730 10729
10722 10723 10724 10726 10727 10728 10728 10727 10727 10727 10728 10729 10730 10732 10733 10734 10735 10736 10737 10737 10738 10739 10740 10740 10740 10740 10740 10740 10740 10740 10739 10740 10740 10740 10740 10739 10737 10736 10735 10734 10732 10729 10726 10723 10721 10719 10719 10718 10716 10714 10712 10710 10710 10710 10711 10713 10715 10718 10719 10719 10720 10722 10720 10718 10717 10718 10721 10721 10722 10724 10724 10725 10725 10724 10724 10725 10726 10726 10727 10728 10729 10730 10729 10728 10728
10717 10718 10720 10720 10722 10723 10723 10722 10722 10722 10723 10723 10724 10726 10727 10728 10729 10730 10731 10732 10733 10735 10736 10736 10736 10736 10736 10735 10735 10735 10736 10736 10736 10736 10736 10735 10734 10733 10732 10731 10729 10726 10722 10718 10715 10715 10715 10714 10713 10711 10709 10707 10706 10706 10706 10708 10709 10711 10712 10711 10713 10715 10715 10714 10713 10713 10716 10717 10718 10719 10720 10721 10721 10722 10722 10722 10723 10724 10724 10725 10726 10727 10727 10727 10726
10712 10712 10714 10714 10716 10718 10718 10717 10716 10716 10717 10717 10718 10720 10721 10722 10723 10724 10725 10727 10728 10729 10731 10732 10732 10732 10731 10731 10731 10731 10732 10732 10732 10732 10732 10731 10730 10730 10729 10728 10725 10722 10716 10712 10711 10711 10712 10711 10709 10708 10707 10705 10703 10702 10701 10702 10702 10704 10705 10705 10707 10708 10710 10710 10710 10709 10711 10713 10715 10715 10717 10718 10717 10718 10719 10720 10720 10721 10721 10722 10723 10724 10725 10724 10724
10705 10706 10707 10708 10710 10711 10712 10712 10711 10710 10711 10711 10713 10714 10715 10716 10716 10718 10719 10720 10722 10723 10725 10726 10727 10727 10727 10726 10726 10727 10727 10727 10727 10728 10727 10727 10726 10726 10725 10724 10723 10719 10712 10708 10708 10709 10709 10708 10706 10705 10704 10703 10701 10699 10697 10696 10697 10697 10698 10699 10701 10702 10704 10706 10706 10706 10706 10708 10711 10712 10713 10714 10713 10714 10716 10717 10717 10718 10719 10719 10720 10721 10721 10721 10721
10697 10699 10700 10701 10703 10705 10706 10706 10705 10705 10705 10706 10707 10708 10709 10710 10710 10711 10712 10714 10715 10717 10719 10720 10722 10722 10722 10722 10722 10722 10723 10723 10723 10723 10723 10722 10721 10721 10720 10720 10718 10713 10709 10706 10706 10705 10704 10703 10703 10702 10701 10700 10698 10697 10694 10692 10692 10692 10692 10693 10695 10696 10698 10700 10701 10702 10702 10704 10706 10708 10709 10710 10710 10711 10713 10713 10714 10715 10716 10717 10717 10718 10718 10718 10717
10690 10693 10694 10695 10697 10699 10700 10700 10700 10700 10700 10701 10702 10703 10704 10704 10704 10705 10706 10707 10709 10710 10712 10714 10716 10716 10717 10717 10717 10718 10718 10718 10718 10718 10717 10716 10716 10715 10715 10715 10714 10709 10705 10705 10703 10700 10699 10697 10697 10696 10696 10696 10694 10693 10692 10689 10688 10688 10687 10687 10689 10691 10692 10695 10696 10698 10699 10700 10702 10705 10706 10706 10707 10708 10709 10710 10711 10712 10713 10714 10714 10714 10715 10715 10714
10685 10687 10689 10691 10692 10694 10694 10694 10694 10694 10694 10695 10696 10698 10698 10699 10699 10700 10701 10701 10702 10704 10706 10708 10709 10710 10711 10712 10713 10713 10713 10713 10713 10713 10712 10711 10711 10710 10710 10711 10711 10706 10701 10701 10698 10695 10694 10692 10691 10690 10690 10690 10689 10688 10687 10686 10684 10684 10683 10683 10684 10686 10688 10691 10692 10694 10695 10697 10698 10701 10702 10703 10704 10704 10705 10707 10708 10709 10710 10711 10711 10711 10711 10712 10711
10681 10682 10685 10687 10687 10687 10687 10687 10688 10689 10690 10691 10691 10692 10692 10693 10694 10695 10695 10696 10697 10698 10699 10701 10703 10704 10705 10706 10707 10708 10708 10708 10707 10707 10707 10706 10706 10705 10704 10705 10706 10702 10698 10696 10694 10691 10689 10687 10686 10686 10685 10684 10683 10682 10682 10682 10680 10680 10680 10679 10680 10683 10686 10688 10689 10691 10692 10693 10695 10697 10698 10699 10700 10700 10701 10703 10704 10705 10706 10707 10707 10707 10708 10708 10708
10675 10677 10680 10681 10681 10682 10682 10683 10684 10684 10686 10686 10686 10687 10687 10688 10689 10690 10691 10691 10691 10692 10694 10695 10696 10698 10699 10700 10702 10702 10703 10703 10702 10701 10701 10701 10701 10700 10699 10698 10698 10696 10694 10692 10688 10686 10685 10682 10680 10679 10679 10679 10676 10675 10676 10677 10676 10676 10676 10676 10677 10680 10683 10685 10686 10687 10689 10690 10691 10693 10694 10695 10696 10697 10698 10699 10700 10702 10703 10704 10704 10704 10705 10705 10705
10671 10673 10676 10677 10678 10679 10679 10679 10680 10680 10681 10680 10681 10682 10683 10684 10685 10686 10686 10686 10687 10687 10688 10690 10691 10692 10693 10695 10696 10697 10698 10698 10697 10696 10696 10696 10696 10695 10694 10693 10691 10689 10688 10686 10683 10680 10678 10676 10674 10671 10670 10670 10668 10667 10669 10670 10671 10671 10672 10672 10673 10676 10678 10680 10681 10682 10684 10686 10687 10689 10689 10690 10692 10693 10694 10695 10697 10699 10700 10701 10701 10701 10701 10702 10702
10668 10670 10672 10673 10674 10675 10675 10676 10676 10676 10676 10676 10678 10679 10680 10681 10681 10681 10681 10682 10682 10683 10684 10685 10685 10686 10688 10689 10690 10691 10692 10692 10691 10691 10691 10691 10690 10689 10689 10688 10686 10684 10682 10681 10678 10675 10671 10669 10667 10664 10661 10660 10658 10659 10662 10663 10665 10667 10668 10667 10668 10670 10673 10675 10676 10677 10679 10681 10683 10684 10685 10686 10688 10689 10690 10691 10693 10695 10697 10697 10697 10697 10698 10698 10698
10664 10666 10668 10669 10670 10671 10671 10672 10672 10671 10672 10673 10674 10675 10676 10677 10677 10677 10677 10677 10678 10679 10679 10680 10680 10681 10682 10683 10684 10685 10685 10686 10686 10686 10686 10686 10685 10684 10684 10682 10681 10679 10677 10676 10673 10670 10666 10663 10659 10656 10654 10652 10649 10650 10653 10655 10658 10661 10662 10661 10662 10664 10666 10669 10671 10673 10675 10677 10679 10680 10682 10683 10684 10686 10687 10688 10690 10692 10693 10693 10693 10694 10694 10695 10695
10660 10662 10664 10665 10666 10666 10667 10668 10668 10667 10668 10669 10670 10671 10672 10673 10673 10673 10673 10673 10674 10674 10675 10675 10675 10676 10676 10677 10677 10678 10678 10679 10680 10680 10680 10680 10680 10679 10679 10677 10676 10674 10672 10671 10668 10666 10662 10658 10653 10648 10646 10645 10642 10642 10645 10647 10650 10654 10655 10655 10655 10657 10659 10662 10666 10669 10672 10673 10675 10677 10679 10680 10682 10683 10684 10685 10687 10688 10689 10689 10689 10690 10691 10691 10691
10657 10659 10660 10661 10662 10662 10662 10663 10664 10664 10664 10665 10666 10667 10668 10668 10669 10669 10669 10669 10670 10670 10670 10670 10670 10670 10670 10671 10671 10671 10672 10672 10674 10674 10674 10674 10674 10674 10673 10672 10670 10668 10667 10665 10663 10661 10657 10653 10648 10643 10640 10638 10636 10635 10637 10640 10643 10647 10649 10650 10650 10651 10654 10657 10661 10665 10667 10669 10671 10673 10675 10677 10678 10680 10681 10683 10684 10685 10686 10686 10686 10687 10687 10687 10687
10653 10655 10656 10657 10658 10658 10658 10659 10660 10661 10661 10661 10662 10663 10664 10665 10665 10665 10665 10665 10665 10665 10665 10665 10665 10665 10665 10665 10665 10666 10666 10667 10668 10668 10668 10668 10667 10668 10667 10667 10665 10663 10662 10660 10658 10655 10651 10647 10643 10638 10635 10632 10630 10629 10630 10633 10637 10642 10646 10647 10648 10649 10651 10653 10657 10660 10663 10666 10668 10670 10671 10673 10675 10676 10678 10680 10681 10682 10682 10682 10682 10683 10683 10683 10682
10649 10650 10651 10652 10653 10654 10655 10655 10656 10657 10657 10658 10659 10660 10661 10661 10661 10660 10660 10660 10660 10660 10660 10660 10660 10660 10660 10660 10661 10661 10661 10662 10662 10663 10662 10662 10662 10662 10662 10661 10660 10658 10657 10655 10653 10650 10646 10642 10637 10633 10629 10627 10624 10623 10625 10628 10633 10637 10641 10644 10647 10648 10649 10650 10653 10656 10659 10662 10664 10666 10668 10670 10671 10673 10674 10677 10677 10677 10678 10678 10679 10679 10679 10678 10678
10644 10645 10647 10648 10648 10650 10651 10651 10652 10653 10654 10655 10656 10657 10657 10657 10657 10656 10656 10656 10656 10656 10655 10656 10655 10655 10655 10655 10656 10656 10656 10657 10657 10657 10657 10656 10656 10656 10656 10656 10654 10653 10652 10651 10648 10645 10641 10637 10633 10628 10624 10621 10619 10618 10620 10624 10628 10633 10637 10640 10643 10645 10647 10648 10650 10652 10655 10658 10660 10662 10664 10666 10667 10669 10671 10673 10673 10673 10673 10674 10675 10675 10675 10674 10674
10639 10641 10642 10643 10644 10645 10646 10647 10649 10649 10650 10651 10652 10653 10653 10652 10652 10652 10652 10652 10652 10651 10651 10652 10651 10650 10650 10650 10650 10651 10651 10651 10651 10651 10651 10651 10651 10651 10651 10651 10649 10648 10648 10646 10644 10641 10637 10633 10628 10623 10620 10617 10614 10614 10616 10620 10624 10629 10633 10636 10639 10641 10644 10646 10647 10650 10652 10655 10657 10659 10660 10662 10664 10665 10667 10669 10669 10669 10669 10670 10671 10671 10671 10670 10670
10635 10637 10638 10639 10640 10641 10643 10644 10645 10645 10646 10647 10648 10648 10648 10648 10648 10648 10648 10648 10647 10647 10647 10647 10647 10646 10646 10645 10645 10645 10646 10646 10646 10645 10645 10645 10645 10646 10646 10645 10644 10643 10643 10642 10640 10637 10633 10629 10624 10619 10615 10613 10611 10610 10613 10617 10621 10625 10629 10632 10635 10638 10641 10643 10645 10647 10650 10652 10654 10656 10657 10658 10660 10661 10663 10664 10665 10665 10665 10665 10666 10667 10666 10665 10665
10630 10632 10633 10635 10636 10637 10639 10640 10641 10642 10643 10643 10644 10644 10644 10645 10644 10644 10644 10643 10643 10642 10642 10643 10643 10642 10641 10641 10641 10640 10641 10641 10641 10640 10640 10640 10640 10640 10640 10640 10639 10638 10638 10637 10635 10632 10629 10626 10622 10616 10612 10610 10608 10608 10611 10615 10618 10622 10626 10629 10632 10636 10638 10640 10642 10644 10647 10649 10651 10653 10654 10655 10655 10657 10659 10660 10660 10661 10661 10661 10661 10661 10660 10660 10660
10625 10627 10629 10631 10632 10634 10635 10637 10637 10638 10639 10640 10641 10641 10641 10641 10640 10640 10639 10639 10638 10638 10638 10638 10638 10638 10637 10637 10636 10636 10636 10636 10635 10635 10634 10635 10635 10635 10635 10635 10634 10634 10633 10631 10630 10628 10625 10622 10618 10614 10610 10607 10606 10607 10610 10613 10616 10620 10623 10626 10630 10633 10636 10638 10640 10642 10644 10646 10648 10649 10650 10650 10651 10652 10654 10655 10656 10657 10657 10656 10656 10656 10655 10655 10655
10621 10623 10625 10627 10629 10630 10632 10633 10633 10634 10635 10636 10637 10637 10637 10636 10636 10635 10635 10634 10633 10633 10634 10634 10633 10633 10633 10632 10632 10632 10631 10631 10630 10630 10629 10630 10630 10630 10630 10630 10629 10629 10628 10627 10625 10624 10622 10619 10616 10612 10609 10606 10605 10606 10609 10612 10615 10618 10621 10623 10627 10630 10633 10635 10637 10639 10640 10642 10644 10645 10645 10646 10647 10648 10650 10651 10651 10652 10652 10652 10652 10652 10651 10651 10650
10617 10619 10622 10623 10624 10626 10627 10628 10629 10630 10631 10632 10633 10633 10633 10633 10632 10631 10630 10629 10629 10629 10629 10629 10629 10628 10628 10628 10628 10627 10627 10626 10625 10624 10624 10625 10625 10625 10625 10625 10625 10625 10624 10623 10622 10620 10619 10617 10613 10610 10608 10606 10605 10606 10608 10611 10613 10616 10618 10621 10624 10627 10629 10631 10633 10635 10636 10638 10639 10639 10640 10641 10641 10643 10645 10646 10646 10646 10647 10648 10648 10648 10648 10647 10646
10613 10615 10617 10617 10618 10620 10622 10624 10624 10625 10627 10628 10629 10629 10630 10629 10628 10627 10626 10625 10624 10624 10624 10624 10624 10623 10623 10624 10623 10622 10622 10621 10620 10620 10620 10620 10620 10620 10620 10620 10620 10620 10620 10620 10618 10617 10615 10613 10611 10608 10607 10605 10605 10606 10607 10609 10611 10613 10616 10619 10622 10624 10626 10628 10629 10630 10631 10633 10634 10634 10635 10636 10636 10638 10639 10640 10640 10641 10642 10643 10644 10643 10643 10643 10642
10609 10611 10612 10612 10613 10616 10618 10619 10619 10620 10622 10624 10625 10626 10626 10625 10623 10622 10621 10620 10619 10619 10620 10620 10619 10618 10618 10619 10618 10617 10616 10616 10615 10615 10615 10615 10616 10616 10615 10615 10615 10616 10616 10616 10614 10613 10612 10610 10608 10606 10605 10604 10604 10605 10606 10607 10608 10610 10613 10616 10619 10620 10622 10624 10625 10625 10627 10628 10630 10631 10632 10632 10632 10632 10633 10635 10636 10636 10636 10637 10638 10639 10639 10638 10637
10604 10606 10606 10607 10609 10612 10614 10614 10615 10616 10618 10620 10620 10621 10621 10620 10618 10617 10616 10615 10615 10615 10615 10615 10614 10614 10614 10614 10613 10612 10611 10611 10610 10610 10610 10611 10611 10611 10611 10611 10611 10611 10612 10611 10610 10610 10608 10607 10605 10604 10603 10602 10602 10603 10604 10604 10606 10607 10610 10613 10614 10615 10617 10619 10621 10622 10623 10625 10626 10627 10627 10627 10627 10627 10628 10629 10630 10631 10631 10632 10634 10634 10633 10633 10632
10599 10600 10601 10602 10604 10607 10609 10610 10611 10612 10613 10614 10615 10615 10615 10614 10613 10612 10611 10611 10610 10610 10610 10610 10609 10609 10609 10609 10608 10607 10607 10606 10606 10606 10606 10606 10606 10606 10606 10606 10607 10607 10607 10607 10606 10605 10604 10603 10602 10600 10600 10600 10600 10600 10601 10602 10603 10604 10606 10608 10609 10611 10613 10615 10616 10618 10618 10619 10621 10622 10622 10623 10623 10623 10623 10623 10624 10626 10627 10628 10628 10627 10627 10627 10627
10593 10595 10596 10596 10599 10602 10604 10606 10607 10607 10608 10609 10610 10610 10609 10609 10607 10607 10606 10606 10605 10605 10605 10605 10605 10604 10604 10604 10603 10602 10602 10601 10601 10601 10601 10601 10601 10601 10602 10602 10602 10602 10602 10602 10601 10601 10600 10599 10598 10597 10596 10596 10597 10597 10597 10599 10600 10601 10602 10603 10603 10606 10609 10610 10611 10612 10613 10614 10615 10617 10617 10617 10618 10618 10617 10617 10618 10620 10622 10622 10622 10621 10621 10622 10620
10587 10588 10589 10590 10593 10597 10599 10601 10602 10602 10603 10604 10604 10604 10603 10602 10602 10601 10601 10600 10600 10600 10600 10600 10600 10599 10599 10599 10598 10597 10597 10597 10597 10596 10596 10596 10596 10597 10597 10597 10597 10597 10597 10597 10596 10596 10595 10595 10594 10593 10592 10592 10593 10594 10593 10595 10597 10597 10597 10598 10599 10602 10604 10605 10605 10606 10607 10608 10609 10611 10611 10611 10611 10612 10612 10612 10612 10613 10616 10616 10615 10616 10616 10615 10613
10580 10580 10582 10585 10589 10592 10593 10595 10596 10597 10598 10598 10598 10597 10596 10595 10596 10596 10596 10595 10594 10595 10595 10595 10594 10594 10594 10593 10593 10592 10592 10592 10592 10591 10591 10591 10591 10591 10592 10592 10592 10592 10592 10591 10591 10590 10590 10589 10589 10589 10588 10587 10588 10589 10589 10590 10591 10592 10592 10593 10595 10597 10599 10599 10600 10601 10602 10602 10604 10605 10605 10605 10605 10605 10606 10606 10606 10607 10608 10609 10609 10609 10608 10608 10608
10572 10574 10577 10581 10583 10585 10587 10589 10591 10592 10592 10592 10591 10590 10589 10589 10590 10591 10591 10589 10589 10589 10589 10589 10589 10588 10588 10588 10587 10587 10587 10586 10586 10586 10586 10586 10586 10586 10586 10587 10587 10587 10586 10586 10585 10585 10585 10584 10584 10584 10584 10583 10583 10584 10585 10585 10586 10586 10587 10588 10590 10592 10593 10593 10594 10596 10597 10597 10599 10600 10600 10600 10600 10600 10601 10601 10601 10601 10601 10602 10602 10602 10601 10601 10602
10566 10568 10571 10574 10575 10578 10582 10584 10586 10587 10586 10585 10583 10582 10582 10583 10585 10586 10585 10583 10583 10583 10583 10583 10583 10583 10582 10582 10582 10582 10581 10581 10581 10580 10580 10580 10580 10580 10580 10581 10581 10581 10580 10580 10579 10579 10579 10579 10579 10579 10579 10578 10578 10579 10580 10580 10580 10581 10582 10583 10584 10586 10587 10588 10588 10590 10591 10592 10593 10594 10595 10595 10594 10595 10595 10596 10596 10595 10595 10595 10595 10596 10596 10595 10596
10560 10561 10564 10566 10569 10573 10576 10578 10580 10580 10579 10578 10576 10575 10575 10577 10579 10580 10579 10578 10577 10577 10577 10577 10577 10577 10577 10577 10576 10576 10576 10575 10575 10575 10575 10575 10575 10574 10574 10575 10575 10575 10575 10574 10573 10573 10573 10573 10573 10573 10573 10573 10572 10573 10574 10575 10574 10575 10576 10577 10578 10580 10581 10582 10582 10583 10584 10585 10586 10587 10589 10589 10588 10589 10589 10589 10590 10590 10590 10589 10589 10589 10590 10590 10590
10555 10555 10558 10561 10565 10569 10570 10572 10573 10573 10572 10571 10570 10569 10570 10571 10573 10574 10573 10572 10571 10571 10571 10571 10571 10571 10571 10571 10571 10570 10570 10570 10569 10569 10569 10569 10569 10568 10568 10569 10569 10569 10569 10568 10568 10567 10567 10568 10568 10567 10567 10568 10567 10567 10568 10569 10569 10569 10570 10571 10572 10573 10574 10575 10576 10576 10577 10579 10580 10580 10582 10582 10582 10582 10582 10583 10583 10584 10583 10583 10583 10583 10583 10583 10583
10551 10551 10553 10556 10561 10563 10563 10564 10565 10565 10565 10564 10564 10564 10564 10565 10566 10567 10566 10566 10565 10565 10565 10565 10565 10565 10566 10566 10565 10565 10564 10564 10564 10563 10563 10563 10563 10562 10562 10562 10562 10563 10563 10563 10562 10561 10561 10562 10562 10561 10561 10562 10562 10561 10561 10562 10563 10564 10564 10565 10566 10567 10568 10569 10570 10570 10571 10572 10573 10574 10575 10575 10576 10576 10577 10577 10577 10578 10577 10576 10577 10576 10575 10576 10576
10545 10546 10549 10552 10555 10555 10555 10556 10557 10558 10559 10559 10559 10558 10558 10559 10560 10560 10560 10560 10560 10559 10559 10560 10560 10560 10560 10560 10560 10559 10559 10558 10557 10557 10557 10556 10556 10556 10556 10556 10556 10556 10556 10557 10556 10556 10556 10556 10555 10555 10555 10556 10556 10555 10554 10555 10556 10557 10558 10559 10560 10562 10563 10563 10564 10564 10564 10565 10567 10568 10568 10568 10569 10569 10569 10570 10570 10571 10570 10569 10570 10569 10568 10569 10569
10538 10541 10545 10547 10547 10547 10547 10549 10551 10552 10554 10554 10553 10552 10551 10552 10554 10554 10554 10554 10554 10554 10554 10554 10554 10554 10554 10554 10554 10553 10553 10552 10551 10551 10550 10550 10550 10550 10550 10550 10550 10550 10550 10550 10550 10550 10550 10549 10549 10549 10548 10549 10549 10549 10548 10548 10549 10551 10552 10552 10554 10556 10556 10557 10557 10557 10558 10559 10560 10561 10561 10561 10562 10562 10562 10562 10562 10562 10562 10562 10562 10562 10561 10561 10561
10532 10536 10539 10540 10539 10539 10541 10542 10544 10546 10547 10547 10546 10545 10546 10547 10548 10549 10549 10548 10548 10548 10548 10548 10548 10548 10548 10548 10548 10547 10546 10546 10545 10545 10544 10544 10544 10544 10544 10544 10544 10544 10544 10543 10544 10544 10543 10543 10542 10542 10542 10542 10542 10542 10542 10541 10542 10544 10545 10546 10547 10549 10549 10549 10550 10551 10551 10552 10554 10554 10553 10553 10553 10553 10553 10553 10554 10554 10555 10555 10554 10553 10553 10554 10552
10526 10529 10531 10531 10532 10533 10534 10536 10537 10539 10540 10540 10539 10539 10540 10542 10543 10543 10543 10542 10542 10542 10542 10542 10542 10542 10542 10542 10542 10541 10540 10540 10539 10539 10538 10538 10538 10537 10537 10537 10538 10538 10537 10537 10537 10537 10537 10536 10536 10535 10535 10535 10535 10535 10535 10535 10536 10536 10537 10538 10539 10541 10542 10542 10543 10544 10545 10546 10546 10546 10545 10545 10544 10544 10545 10546 10547 10547 10547 10547 10547 10546 10545 10546 10545
10519 10521 10523 10524 10525 10526 10527 10529 10531 10533 10533 10533 10533 10534 10535 10536 10537 10537 10536 10535 10536 10536 10536 10536 10535 10535 10535 10535 10535 10534 10534 10533 10533 10533 10532 10532 10531 10531 10531 10531 10531 10531 10531 10530 10530 10530 10530 10529 10529 10528 10528 10528 10528 10528 10528 10528 10529 10529 10529 10530 10531 10533 10534 10535 10536 10537 10537 10538 10538 10538 10538 10537 10536 10537 10539 10540 10540 10540 10540 10540 10541 10540 10538 10537 10537
10512 10513 10515 10517 10518 10519 10521 10523 10525 10527 10527 10527 10527 10528 10528 10529 10530 10530 10529 10529 10529 10529 10529 10529 10529 10528 10528 10528 10528 10527 10527 10526 10526 10526 10525 10525 10524 10524 10524 10524 10525 10524 10524 10524 10523 10523 10522 10522 10522 10521 10521 10521 10521 10521 10521 10520 10521 10521 10522 10522 10523 10524 10526 10527 10528 10529 10529 10529 10530 10530 10530 10529 10528 10530 10532 10533 10532 10533 10533 10533 10533 10533 10532 10530 10529
10505 10507 10508 10510 10512 10514 10516 10517 10519 10520 10521 10521 10521 10521 10522 10522 10523 10523 10523 10523 10523 10522 10522 10522 10522 10521 10521 10521 10520 10520 10519 10519 10519 10518 10518 10518 10517 10517 10517 10517 10517 10517 10517 10517 10516 10515 10515 10515 10515 10514 10514 10513 10513 10514 10513 10513 10513 10513 10514 10514 10515 10516 10517 10518 10519 10520 10521 10521 10522 10522 10522 10522 10521 10522 10524 10524 10523 10523 10524 10525 10524 10524 10523 10522 10521
10499 10500 10501 10504 10506 10508 10510 10511 10512 10513 10513 10514 10515 10515 10515 10515 10515 10516 10516 10516 10516 10516 10516 10515 10515 10514 10514 10513 10513 10512 10512 10512 10511 10511 10511 10511 10510 10510 10510 10510 10510 10510 10510 10509 10509 10509 10508 10507 10507 10507 10507 10506 10506 10506 10506 10505 10505 10505 10505 10506 10506 10507 10507 10508 10509 10510 10511 10512 10513 10513 10513 10513 10513 10513 10514 10515 10515 10514 10514 10515 10514 10514 10513 10512 10511
10492 10494 10496 10499 10501 10503 10503 10504 10505 10505 10506 10507 10507 10508 10508 10508 10508 10509 10509 10509 10509 10509 10508 10508 10508 10507 10507 10506 10506 10505 10505 10504 10504 10504 10504 10503 10503 10503 10503 10503 10502 10502 10502 10502 10502 10502 10501 10500 10500 10499 10499 10498 10498 10498 10498 10497 10497 10497 10497 10497 10498 10498 10498 10499 10500 10501 10502 10503 10504 10504 10504 10504 10504 10504 10505 10506 10506 10505 10504 10504 10504 10504 10503 10502 10501
10487 10489 10491 10494 10495 10496 10496 10498 10498 10498 10498 10499 10500 10501 10502 10502 10502 10503 10503 10502 10502 10501 10501 10501 10500 10500 10500 10499 10498 10498 10497 10497 10497 10497 10497 10497 10496 10496 10496 10495 10495 10495 10495 10494 10494 10494 10494 10493 10493 10492 10491 10490 10490 10490 10489 10489 10489 10489 10488 10488 10489 10489 10489 10490 10491 10492 10493 10493 10494 10494 10495 10495 10495 10495 10495 10496 10496 10495 10495 10494 10494 10494 10493 10492 10491
10481 10483 10485 10487 10487 10489 10490 10491 10492 10492 10491 10491 10492 10493 10495 10495 10495 10495 10496 10495 10495 10494 10494 10493 10493 10493 10492 10492 10491 10490 10490 10490 10490 10490 10490 10490 10489 10489 10489 10488 10488 10487 10487 10487 10486 10486 10486 10486 10485 10485 10484 10483 10482 10481 10481 10481 10480 10480 10480 10480 10480 10480 10480 10481 10482 10482 10483 10484 10484 10484 10485 10485 10485 10485 10485 10486 10486 10486 10485 10484 10484 10483 10482 10482 10481
10475 10477 10478 10479 10480 10482 10483 10485 10486 10486 10485 10484 10484 10485 10486 10488 10488 10488 10489 10488 10488 10487 10487 10486 10486 10485 10485 10484 10484 10484 10484 10484 10484 10483 10483 10482 10482 10482 10481 10481 10480 10480 10480 10479 10478 10478 10478 10477 10477 10476 10476 10475 10475 10474 10473 10472 10471 10471 10470 10470 10470 10471 10471 10471 10472 10473 10473 10474 10474 10475 10475 10475 10475 10475 10475 10475 10476 10475 10475 10474 10473 10473 10472 10470 10469
10469 10470 10471 10472 10474 10475 10476 10478 10479 10479 10479 10478 10477 10477 10478 10480 10482 10482 10481 10481 10480 10480 10480 10479 10479 10478 10478 10478 10477 10477 10477 10477 10476 10476 10475 10475 10475 10475 10474 10474 10473 10473 10472 10471 10471 10470 10469 10469 10468 10467 10467 10466 10466 10465 10464 10463 10462 10462 10461 10461 10460 10461 10461 10461 10462 10463 10463 10464 10464 10464 10464 10465 10465 10465 10465 10465 10465 10464 10464 10463 10462 10462 10461 10460 10458
10462 10463 10465 10467 10468 10469 10470 10471 10472 10472 10473 10473 10472 10472 10471 10472 10473 10474 10474 10474 10473 10473 10473 10472 10472 10472 10472 10471 10471 10470 10470 10469 10469 10468 10468 10468 10468 10468 10467 10467 10466 10465 10464 10463 10463 10462 10461 10460 10459 10459 10458 10457 10456 10455 10455 10454 10453 10452 10451 10451 10451 10451 10451 10451 10452 10452 10453 10453 10453 10454 10454 10454 10454 10454 10454 10454 10453 10453 10452 10452 10451 10450 10449 10448 10447
10457 10457 10459 10461 10462 10463 10464 10464 10464 10465 10466 10467 10467 10466 10465 10465 10466 10466 10467 10467 10466 10466 10466 10466 10466 10466 10465 10465 10464 10463 10463 10462 10461 10461 10461 10461 10461 10460 10459 10459 10458 10457 10456 10455 10455 10454 10453 10452 10451 10450 10449 10448 10447 10446 10445 10444 10443 10442 10442 10441 10441 10441 10441 10441 10441 10441 10441 10442 10442 10443 10443 10443 10443 10443 10443 10442 10442 10441 10441 10440 10439 10438 10437 10436 10434